Tracking 19176 objects as of 28-May-2018
HD Live streaming from Space Station
objects crossing your sky now

COSMOS 1367

Track COSMOS 1367 now!
COSMOS 1367 is classified as:


NORAD ID: 13205
Int'l Code: 1982-045A
Perigee: 6,491.4 km
Apogee: 33,914.7 km
Inclination: 70.7 °
Period: 718.5 minutes
Semi major axis: 26574 km
RCS: 15.3973 m2 (large)
Launch date: May 20, 1982
Source: Commonwealth of Independent States (former USSR) (CIS)
Launch site: PLESETSK MISSILE AND SPACE COMPLEX (PKMTR)
aabbcc
Your satellite tracking list
Your tracking list is empty




NASA's NSSDC Master Catalog

Two Line Element Set (TLE):
1 13205U 82045A   18147.68176684 +.00000773 +00000-0 +00000-0 0  9994
2 13205 070.6861 195.3977 5159795 050.4060 293.4856 02.00408604263796
Source of the keplerian elements: AFSPC